Regional Weather Roundup
Issued by NWS

Home | Current Version | Previous Version | Graphics & Text | Print | Product List | Glossary Off
Versions: 1 2 3 4 5 6 7 8 9 10 11 12 13 14 15 16 17 18 19 20 21 22 23 24 25 26 27 28 29 30 31 32 33 34 35 36 37 38 39 40 41 42 43 44 45 46 47 48 49 50

526
ASUS43 KMKX 270200
RWRWI

WISCONSIN REGIONAL WEATHER ROUNDUP
NATIONAL WEATHER SERVICE MILWAUKEE/SULLIVAN WI
800 PM CST SUN FEB 26 2017

NOTE: "FAIR" INDICATES FEW OR NO CLOUDS BELOW 12,000 FEET WITH NO
SIGNIFICANT WEATHER AND/OR OBSTRUCTIONS TO VISIBILITY.

WIZ001-002-006>008-014>016-023>028-270300-
NORTHWEST WISCONSIN

CITY           SKY/WX    TMP DP  RH WIND       PRES   REMARKS
SUPERIOR ARPT  CLEAR     18   3  52 W3        29.93R
ASHLAND        CLEAR     13   6  74 SW6       29.93R WCI   4
HAYWARD        CLEAR     16   9  74 CALM      29.89R
SIREN          CLEAR     21   7  53 CALM      29.91R
CUMBERLAND     CLEAR     23   7  50 NW6       29.89R WCI  16
RICE LAKE      CLEAR     26   8  46 CALM      29.91R
CHETEK         CLEAR     24  10  55 CALM      29.90R
LADYSMITH      CLEAR     24  11  56 NW7       29.90R WCI  16
EAU CLAIRE     NOT AVBL
MENOMONIE      CLEAR     29  16  57 W5        29.92R WCI  24
NEW RICHMOND   CLEAR     26  13  59 W5        29.92R WCI  20
OSCEOLA        CLEAR     28  13  52 CALM      29.95R
$$

WIZ003>005-009-010-017-018-270300-
NORTH CENTRAL WISCONSIN

CITY           SKY/WX    TMP DP  RH WIND       PRES   REMARKS
MANITOWISH WTR CLEAR     15  10  82 CALM      29.84R
ARBOR VITAE    CLEAR     17  12  79 N5          N/A  WCI  10
WOODRUFF       CLEAR     17  12  79 N5          N/A  WCI  10
RHINELANDER    CLEAR     23  14  68 NW3       29.85R
EAGLE RIVER    CLEAR     19  11  72 NW7       29.83R WCI  10
LAND O LAKES   CLEAR     16  13  88 CALM      29.85R
PHILLIPS       CLEAR     21   9  59 CALM      29.85R
TOMAHAWK       CLEAR     24  15  71 W3        29.85R
MEDFORD        CLOUDY    27  22  79 W3        29.84S
MERRILL        NOT AVBL
$$

WIZ029-030-035-036-043>047-270300-
CENTRAL WISCONSIN

CITY           SKY/WX    TMP DP  RH WIND       PRES   REMARKS
WAUSAU         CLOUDY    30  21  69 W7        29.86R WCI  23
MOSINEE        CLOUDY    28  21  74 SW9       29.87R WCI  20
MARSHFIELD     CLEAR     29  19  66 W10       29.87R WCI  20
STEVENS POINT  CLEAR     30  17  59 SW8       29.89R WCI  23
WAUPACA        PTCLDY    35  20  54 W7        29.89R WCI  29
WAUTOMA        PTCLDY    33  22  63 W8        29.92  WCI  26
WISC RAPIDS    CLEAR     31  20  63 W7        29.91R WCI  24
CAMP DOUGLAS   NOT AVBL
$$

WIZ011>013-019>022-031-037>040-048>050-270300-
NORTHEAST WISCONSIN

CITY           SKY/WX    TMP DP  RH WIND       PRES   REMARKS
ANTIGO         FLURRIES  28  23  81 NW9       29.84R WCI  19
SHAWANO        CLEAR     34  19  55 W5        29.88R WCI  30
OCONTO         CLEAR     32  21  63 W7        29.87R WCI  26
STURGEON BAY   CLEAR     32  20  61 W5        29.88R WCI  27
GREEN BAY      PTCLDY    34  25  69 W7        29.89R WCI  28
MANITOWOC      NOT AVBL
APPLETON       MOCLDY    34  21  60 W8        29.87R WCI  27
CLINTONVILLE   CLEAR     32  18  55 W6        29.88R WCI  26
OSHKOSH        CLEAR     35  23  61 SW6       29.90R WCI  30
$$

WIZ032>034-041-042-053>061-270300-
SOUTHWEST WISCONSIN

CITY           SKY/WX    TMP DP  RH WIND       PRES   REMARKS
LA CROSSE      CLEAR     32  23  69 SW6       29.96R WCI  26
SPARTA         CLEAR     31  22  70 CALM      29.94R
VIROQUA        CLEAR     29  22  75 SW7       29.93R WCI  22
BOSCOBEL       CLEAR     33  24  69 S5        29.98R WCI  29
PRAIRIE DU CHI CLEAR     32  25  73 CALM      29.98R
PLATTEVILLE    CLEAR     32  25  74 W7        29.97R WCI  26
$$

WIZ056-057-062-063-064-067-068-270300-
SOUTH CENTRAL WISCONSIN

CITY           SKY/WX    TMP DP  RH WIND       PRES   REMARKS
REEDSBURG      CLEAR     33  24  71 SW8       29.94R WCI  25
BARABOO/DELLS  CLEAR     34  23  63 W10       29.92R WCI  26
LONE ROCK      NOT AVBL
MINERAL POINT  CLEAR     34  28  80 W8        29.95R WCI  27
MADISON        CLEAR     36  21  54 VRB7      29.94R WCI  30
MIDDLETON      CLEAR     35  24  64 W7        29.94R WCI  29
WATERTOWN      CLEAR     34  25  70 SW5       29.92R WCI  30
MONROE         CLEAR     36  27  69 SW9       29.94R WCI  29
JANESVILLE     CLEAR     36  23  60 SW6       29.95R WCI  31
$$

WIZ051-052-058>065-066-070>072-270300-
SOUTHEAST WISCONSIN

CITY           SKY/WX    TMP DP  RH WIND       PRES   REMARKS
MILWAUKEE      PTCLDY    37  23  56 SW7       29.95R WCI  32
WAUKESHA       CLEAR     36  21  55 SW8       29.94R WCI  29
MILWAUKEE/TIMM CLEAR     36  19  51 SW6       29.94R WCI  31
RACINE         CLOUDY    37  23  56 S7        29.97R WCI  32
KENOSHA        PTCLDY    37  26  64 W10       29.96R WCI  30
FOND DU LAC    CLEAR     34  24  67 SW5       29.91R WCI  30
SHEBOYGAN      CLEAR     33  25  72 SW8       29.91R WCI  26
WEST BEND      CLEAR     34  25  69 SW7       29.91S WCI  28
JUNEAU         CLEAR     33  25  72 SW9       29.92S WCI  26
$$

LSZ147-162-270300-
LAKE SUPERIOR

STATION/POSITION TIME  TEMP    WIND        PRES    WAVE
                       AIR SEA DIR/SP/G            HT/PER
                 (UTC) (F)     (DEG/KT/KT) (MB)    (FT/S)
DEVILS ISLAND    0100   24     280/ 16/ 20 1013.1R
PORT WING        0130   20     190/  5/  7 1013.2R
SAXON HARBOR     0140   18     210/  4/  5 1012.9R
$$

LMZ867-665-643>646-270300-
LAKE MICHIGAN

STATION/POSITION TIME  TEMP    WIND        PRES    WAVE
                       AIR SEA DIR/SP/G            HT/PER
                 (UTC) (F)     (DEG/KT/KT) (MB)    (FT/S)
CHAMBERS ISLAND  0140   34     220/  7/ 12 1010.8R
NORTHPORT PIER   0140   33     280/  5/  9 1011.2R
SISTER BAY       0105   33     290/ 13/ 15   N/A
KEWAUNEE LAKESHO 0130   37     240/  6/ 11 1011.3R
SHEBOYGAN LAKESH 0100   38     220/  9/ 10 1013.1R
PORT WASHINGTON  0130   37     230/  3/  6 1014.2R
MILWAUKEE LAKESH 0130   41     230/  6/  7   N/A
KENOSHA   LAKESH 0100   42     200/  4/  6 1014.2
$$

TC  - TEMPERATURE IN CELSIUS
VSB - VISIBILITY IN STATUTE MILES
WCI - WIND CHILL INDEX
HX  - HEAT INDEX





USA.gov is the U.S. government's official web portal to all federal, state and local government web resources and services.